{"data":{"norad_id":54055,"epoch":"2026-05-25T00:16:55.816032Z","epoch_age_seconds":80870,"freshness":"FRESH","line1":"1 54055U 22136E   26145.01175713 -.00005211  00000+0 -30930-3 0  9994","line2":"2 54055  53.2155   1.6663 0001856  97.3591 262.7612 15.08868348198362","mean_motion":15.08868348,"eccentricity":0.0001856,"inclination_deg":53.2155,"raan_deg":1.6663,"arg_perigee_deg":97.3591,"mean_anomaly_deg":262.7612,"bstar":-0.0003093,"rev_number":19836,"period_min":95.435761636111,"perigee_km":538.37279930701,"apogee_km":540.94068434398,"semimajor_km":6917.7937418255,"source":"CELESTRAK","updated_at":"2026-05-25T13:38:17.646062Z"}}